This demonstration page uses our WeatherBlox Daily Observations layout. Learn more.

Left ArrowRight Arrow

38.80484, -77.04692

Hourly Observations for December 17, 2021

Temp ( °F °C ) Dew Point ( °F °C ) Humidity (%) Winds ( mph kmh ) Pressure ( in mb ) Visibility ( mi km ) Precip ( " mm )
12:52 am 00:52 Cloudy 57 13.9 47 8.3 69 69 S 7 11 29.99 1016 10 16 0.00 0.00
1:52 am 01:52 Cloudy 56 13.3 47 8.3 72 72 S 7 11 30.00 1016 10 16 0.00 0.00
2:52 am 02:52 Cloudy 56 13.3 48 8.9 75 75 S 8 13 30.01 1016 10 16 0.00 0.00
3:52 am 03:52 Cloudy 55 12.8 48 8.9 77 77 S 7 11 30.02 1017 10 16 0.00 0.00
4:52 am 04:52 Cloudy 55 12.8 48 8.9 77 77 S 9 15 30.04 1017 10 16 0.00 0.00
5:52 am 05:52 Cloudy 61 16.1 49 9.4 65 65 WNW 7 11 30.08 1019 10 16 0.00 0.00
6:52 am 06:52 Cloudy 62 16.7 46 7.8 56 56 NW 9 15 30.11 1020 10 16 0.00 0.00
7:52 am 07:52 Cloudy 61 16.1 45 7.2 56 56 NNW 10 17 30.13 1020 10 16 0.00 0.00
8:52 am 08:52 Cloudy 62 16.7 44 6.7 52 52 NNW 9 15 30.16 1021 10 16 0.00 0.00
9:52 am 09:52 Cloudy 63 17.2 40 4.4 43 43 NW 7 11 30.19 1022 10 16 0.00 0.00
10:52 am 10:52 Cloudy 63 17.2 39 3.9 41 41 NNW 13 20 30.19 1022 10 16 0.00 0.00
11:52 am 11:52 Cloudy 62 16.7 39 3.9 43 43 N 10 17 30.18 1022 10 16 0.00 0.00
12:52 pm 12:52 Mostly Cloudy 65 18.3 40 4.4 40 40 NW 9 15 30.16 1021 10 16 0.00 0.00
1:52 pm 13:52 Mostly Cloudy 64 17.8 39 3.9 40 40 N 3 6 30.15 1021 10 16 0.00 0.00
2:52 pm 14:52 Cloudy 62 16.7 38 3.3 41 41 NNW 9 15 30.15 1021 10 16 0.00 0.00
3:52 pm 15:52 Cloudy 61 16.1 36 2.2 39 39 N 8 13 30.16 1021 10 16 0.00 0.00
4:52 pm 16:52 Cloudy 59 15 34 1.1 39 39 N 8 13 30.18 1022 10 16 0.00 0.00
5:52 pm 17:52 Cloudy 57 13.9 34 1.1 42 42 N 8 13 30.19 1023 10 16 0.00 0.00
6:52 pm 18:52 Cloudy 57 13.9 30 -1.1 36 36 NNE 7 11 30.20 1023 10 16 0.00 0.00
7:52 pm 19:52 Cloudy 56 13.3 28 -2.2 34 34 NE 5 7 30.21 1023 10 16 0.00 0.00
8:52 pm 20:52 Cloudy 55 12.8 29 -1.7 37 37 ENE 6 9 30.21 1023 10 16 0.00 0.00
9:52 pm 21:52 Cloudy 56 13.3 21 -6.1 26 26 NE 6 9 30.20 1023 10 16 0.00 0.00
10:52 pm 22:52 Cloudy 55 12.8 22 -5.6 28 28 NE 7 11 30.19 1022 10 16 0.00 0.00
11:52 pm 23:52 Cloudy 55 12.8 23 -5 29 29 NNE 5 7 30.19 1022 10 16 0.00 0.00

Powered by AerisWeather